Simultaneous Nadir Overpasses (SNOs) Predictions

Prediction of SNOs between METOP-A and NOAA-19 Satellite Orbit:

Table of predicted SNOs for the next 14.0 days since TLE Epoch: 7/20/2012
Index Date (METOP-A) Time (METOP-A) METOP-A Lat,Lon Date (NOAA-19) Time (NOAA-19) NOAA-19 Lat,Lon Distance(km) Time Diff (sec)
1 07/24/2012 21:00:33 73.70,-141.18 07/24/2012 20:59:25 73.71,-143.70 78.81 68
2 07/24/2012 21:51:26 -73.16, 24.92 07/24/2012 21:50:17 -73.14, 24.85 2.62 69
3 07/24/2012 22:42:06 73.14,-167.79 07/24/2012 22:41:18 73.11,-167.83 3.34 48
4 07/24/2012 23:32:49 -73.09, -0.56 07/24/2012 23:32:21 -73.09, -0.55 0.83 28
5 07/25/2012 00:23:29 73.08, 166.74 07/25/2012 00:23:22 73.05, 166.77 2.87 7
6 07/25/2012 01:14:12 -73.03, -26.03 07/25/2012 01:14:25 -73.03, -25.94 2.90 13
7 07/25/2012 02:04:51
